<?xml version="1.0" encoding="UTF-8" standalone="yes"?>
<gpx version="1.1" creator="MagicMaps Tour Explorer"
     xmlns:xsi="http://www.w3.org/2001/XMLSchema-instance"
     xmlns="http://www.topografix.com/GPX/1/1">
  <trk>
    <name>Buhl-Stausee</name>
    <trkseg>
      <trkpt lat="48.663419000" lon="8.313195000">
        <ele>683.6</ele>
        <time>1970-01-01T01:00:00</time>
      </trkpt>
      <trkpt lat="48.662907000" lon="8.317820000">
        <ele>683.2</ele>
        <time>1970-01-01T01:00:00</time>
      </trkpt>
      <trkpt lat="48.664084000" lon="8.319094000">
        <ele>684.5</ele>
        <time>1970-01-01T01:00:00</time>
      </trkpt>
      <trkpt lat="48.663999000" lon="8.319910000">
        <ele>682.3</ele>
        <time>1970-01-01T01:00:00</time>
      </trkpt>
      <trkpt lat="48.662646000" lon="8.319385000">
        <ele>679.5</ele>
        <time>1970-01-01T01:00:00</time>
      </trkpt>
      <trkpt lat="48.661044000" lon="8.322326000">
        <ele>669.6</ele>
        <time>1970-01-01T01:00:00</time>
      </trkpt>
      <trkpt lat="48.661818000" lon="8.323946000">
        <ele>679.3</ele>
        <time>1970-01-01T01:00:00</time>
      </trkpt>
      <trkpt lat="48.659576000" lon="8.325130000">
        <ele>668.2</ele>
        <time>1970-01-01T01:00:00</time>
      </trkpt>
      <trkpt lat="48.658685000" lon="8.326500000">
        <ele>669.8</ele>
        <time>1970-01-01T01:00:00</time>
      </trkpt>
      <trkpt lat="48.657606000" lon="8.326718000">
        <ele>667.2</ele>
        <time>1970-01-01T01:00:00</time>
      </trkpt>
      <trkpt lat="48.657039000" lon="8.329713000">
        <ele>674.2</ele>
        <time>1970-01-01T01:00:00</time>
      </trkpt>
      <trkpt lat="48.656101000" lon="8.330879000">
        <ele>670.3</ele>
        <time>1970-01-01T01:00:00</time>
      </trkpt>
      <trkpt lat="48.654741000" lon="8.329064000">
        <ele>616.7</ele>
        <time>1970-01-01T01:00:00</time>
      </trkpt>
      <trkpt lat="48.653116000" lon="8.328135000">
        <ele>663.7</ele>
        <time>1970-01-01T01:00:00</time>
      </trkpt>
      <trkpt lat="48.653423000" lon="8.326638000">
        <ele>671.4</ele>
        <time>1970-01-01T01:00:00</time>
      </trkpt>
      <trkpt lat="48.654005000" lon="8.326223000">
        <ele>663.3</ele>
        <time>1970-01-01T01:00:00</time>
      </trkpt>
      <trkpt lat="48.655101000" lon="8.321456000">
        <ele>658.3</ele>
        <time>1970-01-01T01:00:00</time>
      </trkpt>
      <trkpt lat="48.656491000" lon="8.320690000">
        <ele>669.5</ele>
        <time>1970-01-01T01:00:00</time>
      </trkpt>
      <trkpt lat="48.656801000" lon="8.319803000">
        <ele>677.6</ele>
        <time>1970-01-01T01:00:00</time>
      </trkpt>
      <trkpt lat="48.657838000" lon="8.320265000">
        <ele>676.2</ele>
        <time>1970-01-01T01:00:00</time>
      </trkpt>
      <trkpt lat="48.659976000" lon="8.316705000">
        <ele>676.4</ele>
        <time>1970-01-01T01:00:00</time>
      </trkpt>
      <trkpt lat="48.660056000" lon="8.315007000">
        <ele>678.3</ele>
        <time>1970-01-01T01:00:00</time>
      </trkpt>
      <trkpt lat="48.661356000" lon="8.314242000">
        <ele>683.0</ele>
        <time>1970-01-01T01:00:00</time>
      </trkpt>
      <trkpt lat="48.661523000" lon="8.312067000">
        <ele>681.9</ele>
        <time>1970-01-01T01:00:00</time>
      </trkpt>
      <trkpt lat="48.660377000" lon="8.308484000">
        <ele>680.7</ele>
        <time>1970-01-01T01:00:00</time>
      </trkpt>
      <trkpt lat="48.658470000" lon="8.305590000">
        <ele>692.1</ele>
        <time>1970-01-01T01:00:00</time>
      </trkpt>
      <trkpt lat="48.658319000" lon="8.302877000">
        <ele>689.4</ele>
        <time>1970-01-01T01:00:00</time>
      </trkpt>
      <trkpt lat="48.656080000" lon="8.297136000">
        <ele>699.4</ele>
        <time>1970-01-01T01:00:00</time>
      </trkpt>
      <trkpt lat="48.655934000" lon="8.295305000">
        <ele>705.1</ele>
        <time>1970-01-01T01:00:00</time>
      </trkpt>
      <trkpt lat="48.655442000" lon="8.295753000">
        <ele>709.4</ele>
        <time>1970-01-01T01:00:00</time>
      </trkpt>
      <trkpt lat="48.655698000" lon="8.297142000">
        <ele>707.6</ele>
        <time>1970-01-01T01:00:00</time>
      </trkpt>
      <trkpt lat="48.655434000" lon="8.298198000">
        <ele>712.0</ele>
        <time>1970-01-01T01:00:00</time>
      </trkpt>
      <trkpt lat="48.656928000" lon="8.303405000">
        <ele>720.7</ele>
        <time>1970-01-01T01:00:00</time>
      </trkpt>
      <trkpt lat="48.657375000" lon="8.310392000">
        <ele>733.5</ele>
        <time>1970-01-01T01:00:00</time>
      </trkpt>
      <trkpt lat="48.656455000" lon="8.314546000">
        <ele>733.3</ele>
        <time>1970-01-01T01:00:00</time>
      </trkpt>
      <trkpt lat="48.654619000" lon="8.315929000">
        <ele>738.3</ele>
        <time>1970-01-01T01:00:00</time>
      </trkpt>
      <trkpt lat="48.653504000" lon="8.317573000">
        <ele>740.4</ele>
        <time>1970-01-01T01:00:00</time>
      </trkpt>
      <trkpt lat="48.651691000" lon="8.322893000">
        <ele>732.0</ele>
        <time>1970-01-01T01:00:00</time>
      </trkpt>
      <trkpt lat="48.648892000" lon="8.321132000">
        <ele>747.1</ele>
        <time>1970-01-01T01:00:00</time>
      </trkpt>
      <trkpt lat="48.648442000" lon="8.321138000">
        <ele>750.6</ele>
        <time>1970-01-01T01:00:00</time>
      </trkpt>
      <trkpt lat="48.647661000" lon="8.325900000">
        <ele>740.3</ele>
        <time>1970-01-01T01:00:00</time>
      </trkpt>
      <trkpt lat="48.646680000" lon="8.327406000">
        <ele>742.3</ele>
        <time>1970-01-01T01:00:00</time>
      </trkpt>
      <trkpt lat="48.644518000" lon="8.326892000">
        <ele>751.6</ele>
        <time>1970-01-01T01:00:00</time>
      </trkpt>
      <trkpt lat="48.643019000" lon="8.324401000">
        <ele>746.0</ele>
        <time>1970-01-01T01:00:00</time>
      </trkpt>
      <trkpt lat="48.641375000" lon="8.320214000">
        <ele>741.0</ele>
        <time>1970-01-01T01:00:00</time>
      </trkpt>
      <trkpt lat="48.641485000" lon="8.319907000">
        <ele>745.6</ele>
        <time>1970-01-01T01:00:00</time>
      </trkpt>
      <trkpt lat="48.641121000" lon="8.319132000">
        <ele>741.2</ele>
        <time>1970-01-01T01:00:00</time>
      </trkpt>
      <trkpt lat="48.641463000" lon="8.319908000">
        <ele>745.2</ele>
        <time>1970-01-01T01:00:00</time>
      </trkpt>
      <trkpt lat="48.641330000" lon="8.320317000">
        <ele>740.4</ele>
        <time>1970-01-01T01:00:00</time>
      </trkpt>
      <trkpt lat="48.640487000" lon="8.318428000">
        <ele>728.5</ele>
        <time>1970-01-01T01:00:00</time>
      </trkpt>
      <trkpt lat="48.639398000" lon="8.320580000">
        <ele>712.3</ele>
        <time>1970-01-01T01:00:00</time>
      </trkpt>
      <trkpt lat="48.639031000" lon="8.320337000">
        <ele>709.8</ele>
        <time>1970-01-01T01:00:00</time>
      </trkpt>
      <trkpt lat="48.639784000" lon="8.318291000">
        <ele>702.3</ele>
        <time>1970-01-01T01:00:00</time>
      </trkpt>
      <trkpt lat="48.639219000" lon="8.314159000">
        <ele>678.9</ele>
        <time>1970-01-01T01:00:00</time>
      </trkpt>
      <trkpt lat="48.635812000" lon="8.316037000">
        <ele>642.0</ele>
        <time>1970-01-01T01:00:00</time>
      </trkpt>
      <trkpt lat="48.633814000" lon="8.312875000">
        <ele>620.6</ele>
        <time>1970-01-01T01:00:00</time>
      </trkpt>
      <trkpt lat="48.633389000" lon="8.309555000">
        <ele>610.0</ele>
        <time>1970-01-01T01:00:00</time>
      </trkpt>
      <trkpt lat="48.632404000" lon="8.310315000">
        <ele>603.0</ele>
        <time>1970-01-01T01:00:00</time>
      </trkpt>
      <trkpt lat="48.631612000" lon="8.313312000">
        <ele>570.1</ele>
        <time>1970-01-01T01:00:00</time>
      </trkpt>
      <trkpt lat="48.629859000" lon="8.313403000">
        <ele>559.2</ele>
        <time>1970-01-01T01:00:00</time>
      </trkpt>
      <trkpt lat="48.630769000" lon="8.315291000">
        <ele>552.4</ele>
        <time>1970-01-01T01:00:00</time>
      </trkpt>
      <trkpt lat="48.632618000" lon="8.316013000">
        <ele>550.0</ele>
        <time>1970-01-01T01:00:00</time>
      </trkpt>
      <trkpt lat="48.633572000" lon="8.317561000">
        <ele>546.1</ele>
        <time>1970-01-01T01:00:00</time>
      </trkpt>
      <trkpt lat="48.633719000" lon="8.319662000">
        <ele>540.5</ele>
        <time>1970-01-01T01:00:00</time>
      </trkpt>
      <trkpt lat="48.633295000" lon="8.320245000">
        <ele>537.8</ele>
        <time>1970-01-01T01:00:00</time>
      </trkpt>
      <trkpt lat="48.633156000" lon="8.319063000">
        <ele>537.8</ele>
        <time>1970-01-01T01:00:00</time>
      </trkpt>
      <trkpt lat="48.632176000" lon="8.320569000">
        <ele>546.5</ele>
        <time>1970-01-01T01:00:00</time>
      </trkpt>
      <trkpt lat="48.632431000" lon="8.321991000">
        <ele>534.1</ele>
        <time>1970-01-01T01:00:00</time>
      </trkpt>
      <trkpt lat="48.632175000" lon="8.320468000">
        <ele>548.8</ele>
        <time>1970-01-01T01:00:00</time>
      </trkpt>
      <trkpt lat="48.631777000" lon="8.321593000">
        <ele>559.5</ele>
        <time>1970-01-01T01:00:00</time>
      </trkpt>
      <trkpt lat="48.632675000" lon="8.325143000">
        <ele>575.2</ele>
        <time>1970-01-01T01:00:00</time>
      </trkpt>
      <trkpt lat="48.631055000" lon="8.324995000">
        <ele>597.8</ele>
        <time>1970-01-01T01:00:00</time>
      </trkpt>
      <trkpt lat="48.630158000" lon="8.321648000">
        <ele>616.8</ele>
        <time>1970-01-01T01:00:00</time>
      </trkpt>
      <trkpt lat="48.629094000" lon="8.320441000">
        <ele>630.0</ele>
        <time>1970-01-01T01:00:00</time>
      </trkpt>
      <trkpt lat="48.628081000" lon="8.320421000">
        <ele>639.7</ele>
        <time>1970-01-01T01:00:00</time>
      </trkpt>
      <trkpt lat="48.627524000" lon="8.321209000">
        <ele>650.6</ele>
        <time>1970-01-01T01:00:00</time>
      </trkpt>
      <trkpt lat="48.624672000" lon="8.318092000">
        <ele>680.1</ele>
        <time>1970-01-01T01:00:00</time>
      </trkpt>
      <trkpt lat="48.625320000" lon="8.317371000">
        <ele>680.2</ele>
        <time>1970-01-01T01:00:00</time>
      </trkpt>
      <trkpt lat="48.624886000" lon="8.312491000">
        <ele>693.9</ele>
        <time>1970-01-01T01:00:00</time>
      </trkpt>
      <trkpt lat="48.622337000" lon="8.307471000">
        <ele>721.2</ele>
        <time>1970-01-01T01:00:00</time>
      </trkpt>
      <trkpt lat="48.618889000" lon="8.303573000">
        <ele>730.5</ele>
        <time>1970-01-01T01:00:00</time>
      </trkpt>
      <trkpt lat="48.618438000" lon="8.303376000">
        <ele>729.9</ele>
        <time>1970-01-01T01:00:00</time>
      </trkpt>
      <trkpt lat="48.618847000" lon="8.300317000">
        <ele>720.8</ele>
        <time>1970-01-01T01:00:00</time>
      </trkpt>
      <trkpt lat="48.618761000" lon="8.300929000">
        <ele>725.9</ele>
        <time>1970-01-01T01:00:00</time>
      </trkpt>
      <trkpt lat="48.615615000" lon="8.297818000">
        <ele>762.5</ele>
        <time>1970-01-01T01:00:00</time>
      </trkpt>
      <trkpt lat="48.614731000" lon="8.296541000">
        <ele>767.9</ele>
        <time>1970-01-01T01:00:00</time>
      </trkpt>
      <trkpt lat="48.611547000" lon="8.294550000">
        <ele>799.1</ele>
        <time>1970-01-01T01:00:00</time>
      </trkpt>
      <trkpt lat="48.612147000" lon="8.297086000">
        <ele>838.9</ele>
        <time>1970-01-01T01:00:00</time>
      </trkpt>
      <trkpt lat="48.613605000" lon="8.300118000">
        <ele>873.0</ele>
        <time>1970-01-01T01:00:00</time>
      </trkpt>
      <trkpt lat="48.614392000" lon="8.303804000">
        <ele>912.9</ele>
        <time>1970-01-01T01:00:00</time>
      </trkpt>
      <trkpt lat="48.615447000" lon="8.307216000">
        <ele>915.7</ele>
        <time>1970-01-01T01:00:00</time>
      </trkpt>
      <trkpt lat="48.614393000" lon="8.303940000">
        <ele>914.1</ele>
        <time>1970-01-01T01:00:00</time>
      </trkpt>
      <trkpt lat="48.614886000" lon="8.311124000">
        <ele>941.7</ele>
        <time>1970-01-01T01:00:00</time>
      </trkpt>
      <trkpt lat="48.613981000" lon="8.310221000">
        <ele>946.8</ele>
        <time>1970-01-01T01:00:00</time>
      </trkpt>
      <trkpt lat="48.612474000" lon="8.310241000">
        <ele>950.2</ele>
        <time>1970-01-01T01:00:00</time>
      </trkpt>
      <trkpt lat="48.608470000" lon="8.313857000">
        <ele>941.9</ele>
        <time>1970-01-01T01:00:00</time>
      </trkpt>
      <trkpt lat="48.608821000" lon="8.316124000">
        <ele>934.3</ele>
        <time>1970-01-01T01:00:00</time>
      </trkpt>
      <trkpt lat="48.608104000" lon="8.316643000">
        <ele>932.6</ele>
        <time>1970-01-01T01:00:00</time>
      </trkpt>
      <trkpt lat="48.605304000" lon="8.314748000">
        <ele>907.4</ele>
        <time>1970-01-01T01:00:00</time>
      </trkpt>
      <trkpt lat="48.604841000" lon="8.312516000">
        <ele>876.0</ele>
        <time>1970-01-01T01:00:00</time>
      </trkpt>
      <trkpt lat="48.605393000" lon="8.307082000">
        <ele>857.2</ele>
        <time>1970-01-01T01:00:00</time>
      </trkpt>
      <trkpt lat="48.605198000" lon="8.304575000">
        <ele>839.1</ele>
        <time>1970-01-01T01:00:00</time>
      </trkpt>
      <trkpt lat="48.604324000" lon="8.308724000">
        <ele>825.5</ele>
        <time>1970-01-01T01:00:00</time>
      </trkpt>
      <trkpt lat="48.602957000" lon="8.313423000">
        <ele>797.9</ele>
        <time>1970-01-01T01:00:00</time>
      </trkpt>
      <trkpt lat="48.602572000" lon="8.316751000">
        <ele>778.8</ele>
        <time>1970-01-01T01:00:00</time>
      </trkpt>
      <trkpt lat="48.602640000" lon="8.317758000">
        <ele>775.1</ele>
        <time>1970-01-01T01:00:00</time>
      </trkpt>
      <trkpt lat="48.603455000" lon="8.318595000">
        <ele>783.3</ele>
        <time>1970-01-01T01:00:00</time>
      </trkpt>
      <trkpt lat="48.604239000" lon="8.318041000">
        <ele>800.7</ele>
        <time>1970-01-01T01:00:00</time>
      </trkpt>
      <trkpt lat="48.605141000" lon="8.318572000">
        <ele>813.0</ele>
        <time>1970-01-01T01:00:00</time>
      </trkpt>
      <trkpt lat="48.606651000" lon="8.326623000">
        <ele>834.4</ele>
        <time>1970-01-01T01:00:00</time>
      </trkpt>
      <trkpt lat="48.611258000" lon="8.322186000">
        <ele>790.8</ele>
        <time>1970-01-01T01:00:00</time>
      </trkpt>
      <trkpt lat="48.611918000" lon="8.322595000">
        <ele>778.0</ele>
        <time>1970-01-01T01:00:00</time>
      </trkpt>
      <trkpt lat="48.612376000" lon="8.320248000">
        <ele>798.7</ele>
        <time>1970-01-01T01:00:00</time>
      </trkpt>
      <trkpt lat="48.613120000" lon="8.320510000">
        <ele>795.2</ele>
        <time>1970-01-01T01:00:00</time>
      </trkpt>
      <trkpt lat="48.612668000" lon="8.320143000">
        <ele>796.1</ele>
        <time>1970-01-01T01:00:00</time>
      </trkpt>
      <trkpt lat="48.612273000" lon="8.317943000">
        <ele>799.8</ele>
        <time>1970-01-01T01:00:00</time>
      </trkpt>
      <trkpt lat="48.612490000" lon="8.316651000">
        <ele>800.1</ele>
        <time>1970-01-01T01:00:00</time>
      </trkpt>
      <trkpt lat="48.611739000" lon="8.315237000">
        <ele>804.0</ele>
        <time>1970-01-01T01:00:00</time>
      </trkpt>
      <trkpt lat="48.612252000" lon="8.314416000">
        <ele>807.5</ele>
        <time>1970-01-01T01:00:00</time>
      </trkpt>
      <trkpt lat="48.613622000" lon="8.314126000">
        <ele>811.0</ele>
        <time>1970-01-01T01:00:00</time>
      </trkpt>
      <trkpt lat="48.614191000" lon="8.315170000">
        <ele>810.6</ele>
        <time>1970-01-01T01:00:00</time>
      </trkpt>
      <trkpt lat="48.613744000" lon="8.319484000">
        <ele>801.8</ele>
        <time>1970-01-01T01:00:00</time>
      </trkpt>
      <trkpt lat="48.613973000" lon="8.320261000">
        <ele>802.5</ele>
        <time>1970-01-01T01:00:00</time>
      </trkpt>
      <trkpt lat="48.612985000" lon="8.328211000">
        <ele>749.5</ele>
        <time>1970-01-01T01:00:00</time>
      </trkpt>
      <trkpt lat="48.608632000" lon="8.341529000">
        <ele>657.1</ele>
        <time>1970-01-01T01:00:00</time>
      </trkpt>
      <trkpt lat="48.607378000" lon="8.346463000">
        <ele>643.0</ele>
        <time>1970-01-01T01:00:00</time>
      </trkpt>
      <trkpt lat="48.607378000" lon="8.346463000">
        <ele>643.0</ele>
        <time>1970-01-01T01:00:00</time>
      </trkpt>
      <trkpt lat="48.606166000" lon="8.346954000">
        <ele>636.5</ele>
        <time>1970-01-01T01:00:00</time>
      </trkpt>
      <trkpt lat="48.605547000" lon="8.348793000">
        <ele>625.9</ele>
        <time>1970-01-01T01:00:00</time>
      </trkpt>
      <trkpt lat="48.605830000" lon="8.351096000">
        <ele>623.5</ele>
        <time>1970-01-01T01:00:00</time>
      </trkpt>
      <trkpt lat="48.604019000" lon="8.349016000">
        <ele>606.2</ele>
        <time>1970-01-01T01:00:00</time>
      </trkpt>
      <trkpt lat="48.604317000" lon="8.346164000">
        <ele>591.1</ele>
        <time>1970-01-01T01:00:00</time>
      </trkpt>
      <trkpt lat="48.605516000" lon="8.343300000">
        <ele>579.9</ele>
        <time>1970-01-01T01:00:00</time>
      </trkpt>
      <trkpt lat="48.606232000" lon="8.342748000">
        <ele>581.5</ele>
        <time>1970-01-01T01:00:00</time>
      </trkpt>
      <trkpt lat="48.605823000" lon="8.342007000">
        <ele>571.5</ele>
        <time>1970-01-01T01:00:00</time>
      </trkpt>
      <trkpt lat="48.605727000" lon="8.340923000">
        <ele>571.1</ele>
        <time>1970-01-01T01:00:00</time>
      </trkpt>
      <trkpt lat="48.604379000" lon="8.343091000">
        <ele>563.9</ele>
        <time>1970-01-01T01:00:00</time>
      </trkpt>
      <trkpt lat="48.603673000" lon="8.345609000">
        <ele>553.9</ele>
        <time>1970-01-01T01:00:00</time>
      </trkpt>
      <trkpt lat="48.601891000" lon="8.348481000">
        <ele>535.6</ele>
        <time>1970-01-01T01:00:00</time>
      </trkpt>
      <trkpt lat="48.599112000" lon="8.350348000">
        <ele>501.3</ele>
        <time>1970-01-01T01:00:00</time>
      </trkpt>
      <trkpt lat="48.598765000" lon="8.352658000">
        <ele>493.3</ele>
        <time>1970-01-01T01:00:00</time>
      </trkpt>
      <trkpt lat="48.598176000" lon="8.351852000">
        <ele>492.5</ele>
        <time>1970-01-01T01:00:00</time>
      </trkpt>
      <trkpt lat="48.598375000" lon="8.347305000">
        <ele>507.4</ele>
        <time>1970-01-01T01:00:00</time>
      </trkpt>
      <trkpt lat="48.595763000" lon="8.338794000">
        <ele>523.3</ele>
        <time>1970-01-01T01:00:00</time>
      </trkpt>
      <trkpt lat="48.594385000" lon="8.333862000">
        <ele>535.4</ele>
        <time>1970-01-01T01:00:00</time>
      </trkpt>
      <trkpt lat="48.592888000" lon="8.331712000">
        <ele>527.3</ele>
        <time>1970-01-01T01:00:00</time>
      </trkpt>
      <trkpt lat="48.591601000" lon="8.326915000">
        <ele>533.9</ele>
        <time>1970-01-01T01:00:00</time>
      </trkpt>
      <trkpt lat="48.592116000" lon="8.322704000">
        <ele>549.2</ele>
        <time>1970-01-01T01:00:00</time>
      </trkpt>
      <trkpt lat="48.589405000" lon="8.320706000">
        <ele>544.7</ele>
        <time>1970-01-01T01:00:00</time>
      </trkpt>
      <trkpt lat="48.588355000" lon="8.318042000">
        <ele>551.5</ele>
        <time>1970-01-01T01:00:00</time>
      </trkpt>
      <trkpt lat="48.588484000" lon="8.317057000">
        <ele>550.3</ele>
        <time>1970-01-01T01:00:00</time>
      </trkpt>
      <trkpt lat="48.588099000" lon="8.316655000">
        <ele>550.3</ele>
        <time>1970-01-01T01:00:00</time>
      </trkpt>
      <trkpt lat="48.587565000" lon="8.317578000">
        <ele>551.5</ele>
        <time>1970-01-01T01:00:00</time>
      </trkpt>
      <trkpt lat="48.587638000" lon="8.318526000">
        <ele>553.8</ele>
        <time>1970-01-01T01:00:00</time>
      </trkpt>
      <trkpt lat="48.586196000" lon="8.318071000">
        <ele>555.6</ele>
        <time>1970-01-01T01:00:00</time>
      </trkpt>
      <trkpt lat="48.583838000" lon="8.318713000">
        <ele>565.5</ele>
        <time>1970-01-01T01:00:00</time>
      </trkpt>
      <trkpt lat="48.581936000" lon="8.320433000">
        <ele>590.5</ele>
        <time>1970-01-01T01:00:00</time>
      </trkpt>
      <trkpt lat="48.580893000" lon="8.318854000">
        <ele>571.0</ele>
        <time>1970-01-01T01:00:00</time>
      </trkpt>
      <trkpt lat="48.580995000" lon="8.321859000">
        <ele>597.3</ele>
        <time>1970-01-01T01:00:00</time>
      </trkpt>
      <trkpt lat="48.580122000" lon="8.326413000">
        <ele>639.7</ele>
        <time>1970-01-01T01:00:00</time>
      </trkpt>
      <trkpt lat="48.579251000" lon="8.323577000">
        <ele>645.5</ele>
        <time>1970-01-01T01:00:00</time>
      </trkpt>
      <trkpt lat="48.578230000" lon="8.325896000">
        <ele>684.4</ele>
        <time>1970-01-01T01:00:00</time>
      </trkpt>
      <trkpt lat="48.577422000" lon="8.326178000">
        <ele>697.4</ele>
        <time>1970-01-01T01:00:00</time>
      </trkpt>
      <trkpt lat="48.577066000" lon="8.326962000">
        <ele>696.5</ele>
        <time>1970-01-01T01:00:00</time>
      </trkpt>
      <trkpt lat="48.577274000" lon="8.327807000">
        <ele>707.0</ele>
        <time>1970-01-01T01:00:00</time>
      </trkpt>
      <trkpt lat="48.577636000" lon="8.328141000">
        <ele>709.0</ele>
        <time>1970-01-01T01:00:00</time>
      </trkpt>
      <trkpt lat="48.578871000" lon="8.331785000">
        <ele>718.7</ele>
        <time>1970-01-01T01:00:00</time>
      </trkpt>
      <trkpt lat="48.580797000" lon="8.330370000">
        <ele>720.2</ele>
        <time>1970-01-01T01:00:00</time>
      </trkpt>
      <trkpt lat="48.579463000" lon="8.333031000">
        <ele>742.9</ele>
        <time>1970-01-01T01:00:00</time>
      </trkpt>
      <trkpt lat="48.578834000" lon="8.333175000">
        <ele>740.3</ele>
        <time>1970-01-01T01:00:00</time>
      </trkpt>
      <trkpt lat="48.577270000" lon="8.330993000">
        <ele>756.5</ele>
        <time>1970-01-01T01:00:00</time>
      </trkpt>
      <trkpt lat="48.574123000" lon="8.331271000">
        <ele>790.3</ele>
        <time>1970-01-01T01:00:00</time>
      </trkpt>
      <trkpt lat="48.572598000" lon="8.328174000">
        <ele>795.4</ele>
        <time>1970-01-01T01:00:00</time>
      </trkpt>
      <trkpt lat="48.567524000" lon="8.325970000">
        <ele>844.4</ele>
        <time>1970-01-01T01:00:00</time>
      </trkpt>
      <trkpt lat="48.566601000" lon="8.325678000">
        <ele>845.5</ele>
        <time>1970-01-01T01:00:00</time>
      </trkpt>
      <trkpt lat="48.567458000" lon="8.326107000">
        <ele>850.0</ele>
        <time>1970-01-01T01:00:00</time>
      </trkpt>
      <trkpt lat="48.570947000" lon="8.330466000">
        <ele>891.5</ele>
        <time>1970-01-01T01:00:00</time>
      </trkpt>
      <trkpt lat="48.573107000" lon="8.334538000">
        <ele>907.5</ele>
        <time>1970-01-01T01:00:00</time>
      </trkpt>
      <trkpt lat="48.574776000" lon="8.335364000">
        <ele>897.0</ele>
        <time>1970-01-01T01:00:00</time>
      </trkpt>
      <trkpt lat="48.576135000" lon="8.337041000">
        <ele>901.9</ele>
        <time>1970-01-01T01:00:00</time>
      </trkpt>
      <trkpt lat="48.576302000" lon="8.338699000">
        <ele>917.0</ele>
        <time>1970-01-01T01:00:00</time>
      </trkpt>
      <trkpt lat="48.575606000" lon="8.338912000">
        <ele>920.8</ele>
        <time>1970-01-01T01:00:00</time>
      </trkpt>
      <trkpt lat="48.574367000" lon="8.338555000">
        <ele>924.1</ele>
        <time>1970-01-01T01:00:00</time>
      </trkpt>
      <trkpt lat="48.573277000" lon="8.340671000">
        <ele>912.0</ele>
        <time>1970-01-01T01:00:00</time>
      </trkpt>
      <trkpt lat="48.572719000" lon="8.341423000">
        <ele>907.8</ele>
        <time>1970-01-01T01:00:00</time>
      </trkpt>
      <trkpt lat="48.572121000" lon="8.342922000">
        <ele>909.9</ele>
        <time>1970-01-01T01:00:00</time>
      </trkpt>
      <trkpt lat="48.572216000" lon="8.343870000">
        <ele>906.3</ele>
        <time>1970-01-01T01:00:00</time>
      </trkpt>
      <trkpt lat="48.571191000" lon="8.346560000">
        <ele>894.6</ele>
        <time>1970-01-01T01:00:00</time>
      </trkpt>
      <trkpt lat="48.570987000" lon="8.346359000">
        <ele>889.1</ele>
        <time>1970-01-01T01:00:00</time>
      </trkpt>
      <trkpt lat="48.571103000" lon="8.343036000">
        <ele>904.0</ele>
        <time>1970-01-01T01:00:00</time>
      </trkpt>
      <trkpt lat="48.573544000" lon="8.337209000">
        <ele>923.9</ele>
        <time>1970-01-01T01:00:00</time>
      </trkpt>
      <trkpt lat="48.572329000" lon="8.337123000">
        <ele>920.9</ele>
        <time>1970-01-01T01:00:00</time>
      </trkpt>
      <trkpt lat="48.571047000" lon="8.333209000">
        <ele>922.1</ele>
        <time>1970-01-01T01:00:00</time>
      </trkpt>
      <trkpt lat="48.569282000" lon="8.331402000">
        <ele>897.0</ele>
        <time>1970-01-01T01:00:00</time>
      </trkpt>
      <trkpt lat="48.568040000" lon="8.330504000">
        <ele>892.9</ele>
        <time>1970-01-01T01:00:00</time>
      </trkpt>
      <trkpt lat="48.565495000" lon="8.325996000">
        <ele>848.5</ele>
        <time>1970-01-01T01:00:00</time>
      </trkpt>
      <trkpt lat="48.563674000" lon="8.322318000">
        <ele>886.9</ele>
        <time>1970-01-01T01:00:00</time>
      </trkpt>
      <trkpt lat="48.563482000" lon="8.320287000">
        <ele>887.2</ele>
        <time>1970-01-01T01:00:00</time>
      </trkpt>
      <trkpt lat="48.563674000" lon="8.318523000">
        <ele>897.7</ele>
        <time>1970-01-01T01:00:00</time>
      </trkpt>
      <trkpt lat="48.562826000" lon="8.315891000">
        <ele>909.3</ele>
        <time>1970-01-01T01:00:00</time>
      </trkpt>
      <trkpt lat="48.561963000" lon="8.314446000">
        <ele>925.0</ele>
        <time>1970-01-01T01:00:00</time>
      </trkpt>
      <trkpt lat="48.559729000" lon="8.305667000">
        <ele>932.1</ele>
        <time>1970-01-01T01:00:00</time>
      </trkpt>
      <trkpt lat="48.558196000" lon="8.301351000">
        <ele>939.8</ele>
        <time>1970-01-01T01:00:00</time>
      </trkpt>
      <trkpt lat="48.555943000" lon="8.297079000">
        <ele>950.5</ele>
        <time>1970-01-01T01:00:00</time>
      </trkpt>
      <trkpt lat="48.553616000" lon="8.294447000">
        <ele>945.9</ele>
        <time>1970-01-01T01:00:00</time>
      </trkpt>
      <trkpt lat="48.552703000" lon="8.288599000">
        <ele>951.8</ele>
        <time>1970-01-01T01:00:00</time>
      </trkpt>
      <trkpt lat="48.553035000" lon="8.287713000">
        <ele>951.9</ele>
        <time>1970-01-01T01:00:00</time>
      </trkpt>
      <trkpt lat="48.552160000" lon="8.280815000">
        <ele>946.8</ele>
        <time>1970-01-01T01:00:00</time>
      </trkpt>
      <trkpt lat="48.554502000" lon="8.274073000">
        <ele>974.1</ele>
        <time>1970-01-01T01:00:00</time>
      </trkpt>
      <trkpt lat="48.557367000" lon="8.271966000">
        <ele>989.0</ele>
        <time>1970-01-01T01:00:00</time>
      </trkpt>
      <trkpt lat="48.557890000" lon="8.269530000">
        <ele>983.1</ele>
        <time>1970-01-01T01:00:00</time>
      </trkpt>
      <trkpt lat="48.559360000" lon="8.267204000">
        <ele>980.0</ele>
        <time>1970-01-01T01:00:00</time>
      </trkpt>
      <trkpt lat="48.559330000" lon="8.262529000">
        <ele>959.7</ele>
        <time>1970-01-01T01:00:00</time>
      </trkpt>
      <trkpt lat="48.560951000" lon="8.262844000">
        <ele>942.3</ele>
        <time>1970-01-01T01:00:00</time>
      </trkpt>
      <trkpt lat="48.562036000" lon="8.260084000">
        <ele>889.3</ele>
        <time>1970-01-01T01:00:00</time>
      </trkpt>
      <trkpt lat="48.562080000" lon="8.256492000">
        <ele>931.5</ele>
        <time>1970-01-01T01:00:00</time>
      </trkpt>
      <trkpt lat="48.563716000" lon="8.255485000">
        <ele>923.7</ele>
        <time>1970-01-01T01:00:00</time>
      </trkpt>
      <trkpt lat="48.564563000" lon="8.254422000">
        <ele>926.0</ele>
        <time>1970-01-01T01:00:00</time>
      </trkpt>
      <trkpt lat="48.566991000" lon="8.254251000">
        <ele>870.2</ele>
        <time>1970-01-01T01:00:00</time>
      </trkpt>
      <trkpt lat="48.567072000" lon="8.249636000">
        <ele>866.4</ele>
        <time>1970-01-01T01:00:00</time>
      </trkpt>
      <trkpt lat="48.566703000" lon="8.248116000">
        <ele>859.4</ele>
        <time>1970-01-01T01:00:00</time>
      </trkpt>
      <trkpt lat="48.567467000" lon="8.248139000">
        <ele>848.7</ele>
        <time>1970-01-01T01:00:00</time>
      </trkpt>
      <trkpt lat="48.568063000" lon="8.249824000">
        <ele>834.7</ele>
        <time>1970-01-01T01:00:00</time>
      </trkpt>
      <trkpt lat="48.567867000" lon="8.250776000">
        <ele>834.2</ele>
        <time>1970-01-01T01:00:00</time>
      </trkpt>
      <trkpt lat="48.569697000" lon="8.255561000">
        <ele>771.0</ele>
        <time>1970-01-01T01:00:00</time>
      </trkpt>
      <trkpt lat="48.569491000" lon="8.258479000">
        <ele>760.1</ele>
        <time>1970-01-01T01:00:00</time>
      </trkpt>
      <trkpt lat="48.568570000" lon="8.262186000">
        <ele>745.7</ele>
        <time>1970-01-01T01:00:00</time>
      </trkpt>
      <trkpt lat="48.568490000" lon="8.263712000">
        <ele>741.0</ele>
        <time>1970-01-01T01:00:00</time>
      </trkpt>
      <trkpt lat="48.568871000" lon="8.263503000">
        <ele>740.9</ele>
        <time>1970-01-01T01:00:00</time>
      </trkpt>
      <trkpt lat="48.569198000" lon="8.261804000">
        <ele>742.6</ele>
        <time>1970-01-01T01:00:00</time>
      </trkpt>
      <trkpt lat="48.569861000" lon="8.259964000">
        <ele>756.5</ele>
        <time>1970-01-01T01:00:00</time>
      </trkpt>
      <trkpt lat="48.570303000" lon="8.255281000">
        <ele>768.0</ele>
        <time>1970-01-01T01:00:00</time>
      </trkpt>
      <trkpt lat="48.569593000" lon="8.253360000">
        <ele>770.8</ele>
        <time>1970-01-01T01:00:00</time>
      </trkpt>
      <trkpt lat="48.569697000" lon="8.252105000">
        <ele>780.0</ele>
        <time>1970-01-01T01:00:00</time>
      </trkpt>
      <trkpt lat="48.570750000" lon="8.251377000">
        <ele>800.9</ele>
        <time>1970-01-01T01:00:00</time>
      </trkpt>
      <trkpt lat="48.571005000" lon="8.252661000">
        <ele>799.9</ele>
        <time>1970-01-01T01:00:00</time>
      </trkpt>
      <trkpt lat="48.571981000" lon="8.253151000">
        <ele>811.8</ele>
        <time>1970-01-01T01:00:00</time>
      </trkpt>
      <trkpt lat="48.573168000" lon="8.252388000">
        <ele>829.9</ele>
        <time>1970-01-01T01:00:00</time>
      </trkpt>
      <trkpt lat="48.573390000" lon="8.253526000">
        <ele>824.3</ele>
        <time>1970-01-01T01:00:00</time>
      </trkpt>
      <trkpt lat="48.574035000" lon="8.252499000">
        <ele>844.6</ele>
        <time>1970-01-01T01:00:00</time>
      </trkpt>
      <trkpt lat="48.577022000" lon="8.251879000">
        <ele>870.3</ele>
        <time>1970-01-01T01:00:00</time>
      </trkpt>
      <trkpt lat="48.577074000" lon="8.252963000">
        <ele>878.2</ele>
        <time>1970-01-01T01:00:00</time>
      </trkpt>
      <trkpt lat="48.576783000" lon="8.253103000">
        <ele>871.9</ele>
        <time>1970-01-01T01:00:00</time>
      </trkpt>
      <trkpt lat="48.576035000" lon="8.255656000">
        <ele>892.0</ele>
        <time>1970-01-01T01:00:00</time>
      </trkpt>
      <trkpt lat="48.575721000" lon="8.255864000">
        <ele>887.1</ele>
        <time>1970-01-01T01:00:00</time>
      </trkpt>
      <trkpt lat="48.575702000" lon="8.256339000">
        <ele>894.2</ele>
        <time>1970-01-01T01:00:00</time>
      </trkpt>
      <trkpt lat="48.577853000" lon="8.255087000">
        <ele>917.3</ele>
        <time>1970-01-01T01:00:00</time>
      </trkpt>
      <trkpt lat="48.579078000" lon="8.253306000">
        <ele>930.0</ele>
        <time>1970-01-01T01:00:00</time>
      </trkpt>
      <trkpt lat="48.579402000" lon="8.251200000">
        <ele>937.8</ele>
        <time>1970-01-01T01:00:00</time>
      </trkpt>
      <trkpt lat="48.578932000" lon="8.244597000">
        <ele>947.8</ele>
        <time>1970-01-01T01:00:00</time>
      </trkpt>
      <trkpt lat="48.578698000" lon="8.242229000">
        <ele>975.4</ele>
        <time>1970-01-01T01:00:00</time>
      </trkpt>
      <trkpt lat="48.579712000" lon="8.239028000">
        <ele>986.7</ele>
        <time>1970-01-01T01:00:00</time>
      </trkpt>
      <trkpt lat="48.582268000" lon="8.237837000">
        <ele>970.0</ele>
        <time>1970-01-01T01:00:00</time>
      </trkpt>
      <trkpt lat="48.583260000" lon="8.238297000">
        <ele>950.0</ele>
        <time>1970-01-01T01:00:00</time>
      </trkpt>
      <trkpt lat="48.583796000" lon="8.237611000">
        <ele>959.1</ele>
        <time>1970-01-01T01:00:00</time>
      </trkpt>
      <trkpt lat="48.583695000" lon="8.236053000">
        <ele>968.3</ele>
        <time>1970-01-01T01:00:00</time>
      </trkpt>
      <trkpt lat="48.583148000" lon="8.234908000">
        <ele>974.0</ele>
        <time>1970-01-01T01:00:00</time>
      </trkpt>
      <trkpt lat="48.583223000" lon="8.232670000">
        <ele>967.1</ele>
        <time>1970-01-01T01:00:00</time>
      </trkpt>
      <trkpt lat="48.585155000" lon="8.232370000">
        <ele>960.9</ele>
        <time>1970-01-01T01:00:00</time>
      </trkpt>
      <trkpt lat="48.585581000" lon="8.228770000">
        <ele>993.5</ele>
        <time>1970-01-01T01:00:00</time>
      </trkpt>
      <trkpt lat="48.585549000" lon="8.224092000">
        <ele>1003.3</ele>
        <time>1970-01-01T01:00:00</time>
      </trkpt>
      <trkpt lat="48.586040000" lon="8.223406000">
        <ele>991.2</ele>
        <time>1970-01-01T01:00:00</time>
      </trkpt>
      <trkpt lat="48.587075000" lon="8.223458000">
        <ele>978.7</ele>
        <time>1970-01-01T01:00:00</time>
      </trkpt>
      <trkpt lat="48.589051000" lon="8.223089000">
        <ele>988.1</ele>
        <time>1970-01-01T01:00:00</time>
      </trkpt>
      <trkpt lat="48.590272000" lon="8.223952000">
        <ele>962.6</ele>
        <time>1970-01-01T01:00:00</time>
      </trkpt>
      <trkpt lat="48.591838000" lon="8.222775000">
        <ele>967.6</ele>
        <time>1970-01-01T01:00:00</time>
      </trkpt>
      <trkpt lat="48.593951000" lon="8.222607000">
        <ele>951.5</ele>
        <time>1970-01-01T01:00:00</time>
      </trkpt>
      <trkpt lat="48.593559000" lon="8.223176000">
        <ele>942.2</ele>
        <time>1970-01-01T01:00:00</time>
      </trkpt>
      <trkpt lat="48.594537000" lon="8.221432000">
        <ele>952.0</ele>
        <time>1970-01-01T01:00:00</time>
      </trkpt>
      <trkpt lat="48.595995000" lon="8.217443000">
        <ele>947.9</ele>
        <time>1970-01-01T01:00:00</time>
      </trkpt>
      <trkpt lat="48.596874000" lon="8.217768000">
        <ele>944.0</ele>
        <time>1970-01-01T01:00:00</time>
      </trkpt>
      <trkpt lat="48.596310000" lon="8.217573000">
        <ele>947.9</ele>
        <time>1970-01-01T01:00:00</time>
      </trkpt>
      <trkpt lat="48.597274000" lon="8.217050000">
        <ele>953.7</ele>
        <time>1970-01-01T01:00:00</time>
      </trkpt>
      <trkpt lat="48.596310000" lon="8.217506000">
        <ele>948.5</ele>
        <time>1970-01-01T01:00:00</time>
      </trkpt>
      <trkpt lat="48.596910000" lon="8.216445000">
        <ele>966.8</ele>
        <time>1970-01-01T01:00:00</time>
      </trkpt>
      <trkpt lat="48.597414000" lon="8.211283000">
        <ele>1003.5</ele>
        <time>1970-01-01T01:00:00</time>
      </trkpt>
      <trkpt lat="48.597976000" lon="8.207850000">
        <ele>1026.8</ele>
        <time>1970-01-01T01:00:00</time>
      </trkpt>
      <trkpt lat="48.597933000" lon="8.204968000">
        <ele>1031.6</ele>
        <time>1970-01-01T01:00:00</time>
      </trkpt>
      <trkpt lat="48.597000000" lon="8.203389000">
        <ele>1020.6</ele>
        <time>1970-01-01T01:00:00</time>
      </trkpt>
      <trkpt lat="48.596223000" lon="8.201605000">
        <ele>1021.0</ele>
        <time>1970-01-01T01:00:00</time>
      </trkpt>
      <trkpt lat="48.596570000" lon="8.199768000">
        <ele>1043.1</ele>
        <time>1970-01-01T01:00:00</time>
      </trkpt>
      <trkpt lat="48.596441000" lon="8.200584000">
        <ele>1030.2</ele>
        <time>1970-01-01T01:00:00</time>
      </trkpt>
      <trkpt lat="48.595616000" lon="8.198427000">
        <ele>1043.0</ele>
        <time>1970-01-01T01:00:00</time>
      </trkpt>
      <trkpt lat="48.595464000" lon="8.195954000">
        <ele>1027.8</ele>
        <time>1970-01-01T01:00:00</time>
      </trkpt>
      <trkpt lat="48.596253000" lon="8.193026000">
        <ele>1015.2</ele>
        <time>1970-01-01T01:00:00</time>
      </trkpt>
      <trkpt lat="48.597171000" lon="8.192435000">
        <ele>1006.3</ele>
        <time>1970-01-01T01:00:00</time>
      </trkpt>
      <trkpt lat="48.598885000" lon="8.193085000">
        <ele>1004.8</ele>
        <time>1970-01-01T01:00:00</time>
      </trkpt>
      <trkpt lat="48.605876000" lon="8.192499000">
        <ele>941.2</ele>
        <time>1970-01-01T01:00:00</time>
      </trkpt>
      <trkpt lat="48.608333000" lon="8.193892000">
        <ele>941.7</ele>
        <time>1970-01-01T01:00:00</time>
      </trkpt>
      <trkpt lat="48.610536000" lon="8.193721000">
        <ele>932.7</ele>
        <time>1970-01-01T01:00:00</time>
      </trkpt>
      <trkpt lat="48.613722000" lon="8.192653000">
        <ele>909.6</ele>
        <time>1970-01-01T01:00:00</time>
      </trkpt>
      <trkpt lat="48.616610000" lon="8.193896000">
        <ele>901.2</ele>
        <time>1970-01-01T01:00:00</time>
      </trkpt>
      <trkpt lat="48.618947000" lon="8.193587000">
        <ele>900.1</ele>
        <time>1970-01-01T01:00:00</time>
      </trkpt>
      <trkpt lat="48.620353000" lon="8.195193000">
        <ele>904.4</ele>
        <time>1970-01-01T01:00:00</time>
      </trkpt>
      <trkpt lat="48.620959000" lon="8.198305000">
        <ele>916.4</ele>
        <time>1970-01-01T01:00:00</time>
      </trkpt>
      <trkpt lat="48.622870000" lon="8.201463000">
        <ele>924.8</ele>
        <time>1970-01-01T01:00:00</time>
      </trkpt>
      <trkpt lat="48.626471000" lon="8.201814000">
        <ele>922.3</ele>
        <time>1970-01-01T01:00:00</time>
      </trkpt>
      <trkpt lat="48.628193000" lon="8.203686000">
        <ele>922.7</ele>
        <time>1970-01-01T01:00:00</time>
      </trkpt>
      <trkpt lat="48.628482000" lon="8.206464000">
        <ele>928.3</ele>
        <time>1970-01-01T01:00:00</time>
      </trkpt>
      <trkpt lat="48.627825000" lon="8.204926000">
        <ele>939.1</ele>
        <time>1970-01-01T01:00:00</time>
      </trkpt>
      <trkpt lat="48.628600000" lon="8.206475000">
        <ele>926.7</ele>
        <time>1970-01-01T01:00:00</time>
      </trkpt>
      <trkpt lat="48.629320000" lon="8.206429000">
        <ele>927.4</ele>
        <time>1970-01-01T01:00:00</time>
      </trkpt>
      <trkpt lat="48.629775000" lon="8.207337000">
        <ele>936.1</ele>
        <time>1970-01-01T01:00:00</time>
      </trkpt>
      <trkpt lat="48.631247000" lon="8.205482000">
        <ele>947.5</ele>
        <time>1970-01-01T01:00:00</time>
      </trkpt>
      <trkpt lat="48.632044000" lon="8.203773000">
        <ele>941.6</ele>
        <time>1970-01-01T01:00:00</time>
      </trkpt>
      <trkpt lat="48.633924000" lon="8.202420000">
        <ele>945.7</ele>
        <time>1970-01-01T01:00:00</time>
      </trkpt>
      <trkpt lat="48.636380000" lon="8.203060000">
        <ele>948.7</ele>
        <time>1970-01-01T01:00:00</time>
      </trkpt>
      <trkpt lat="48.641905000" lon="8.208403000">
        <ele>941.7</ele>
        <time>1970-01-01T01:00:00</time>
      </trkpt>
      <trkpt lat="48.644052000" lon="8.213189000">
        <ele>935.2</ele>
        <time>1970-01-01T01:00:00</time>
      </trkpt>
      <trkpt lat="48.643976000" lon="8.215226000">
        <ele>929.4</ele>
        <time>1970-01-01T01:00:00</time>
      </trkpt>
      <trkpt lat="48.644882000" lon="8.229535000">
        <ele>889.5</ele>
        <time>1970-01-01T01:00:00</time>
      </trkpt>
      <trkpt lat="48.644397000" lon="8.228846000">
        <ele>903.6</ele>
        <time>1970-01-01T01:00:00</time>
      </trkpt>
      <trkpt lat="48.645261000" lon="8.230224000">
        <ele>879.8</ele>
        <time>1970-01-01T01:00:00</time>
      </trkpt>
      <trkpt lat="48.645756000" lon="8.230318000">
        <ele>880.0</ele>
        <time>1970-01-01T01:00:00</time>
      </trkpt>
      <trkpt lat="48.647555000" lon="8.230223000">
        <ele>875.7</ele>
        <time>1970-01-01T01:00:00</time>
      </trkpt>
      <trkpt lat="48.645801000" lon="8.230284000">
        <ele>880.0</ele>
        <time>1970-01-01T01:00:00</time>
      </trkpt>
      <trkpt lat="48.645776000" lon="8.229877000">
        <ele>878.0</ele>
        <time>1970-01-01T01:00:00</time>
      </trkpt>
      <trkpt lat="48.646897000" lon="8.229351000">
        <ele>865.6</ele>
        <time>1970-01-01T01:00:00</time>
      </trkpt>
      <trkpt lat="48.649481000" lon="8.229006000">
        <ele>842.6</ele>
        <time>1970-01-01T01:00:00</time>
      </trkpt>
      <trkpt lat="48.652980000" lon="8.227561000">
        <ele>810.2</ele>
        <time>1970-01-01T01:00:00</time>
      </trkpt>
      <trkpt lat="48.652418000" lon="8.224243000">
        <ele>791.7</ele>
        <time>1970-01-01T01:00:00</time>
      </trkpt>
      <trkpt lat="48.653247000" lon="8.223789000">
        <ele>777.3</ele>
        <time>1970-01-01T01:00:00</time>
      </trkpt>
      <trkpt lat="48.654563000" lon="8.225500000">
        <ele>778.8</ele>
        <time>1970-01-01T01:00:00</time>
      </trkpt>
      <trkpt lat="48.655566000" lon="8.224194000">
        <ele>766.5</ele>
        <time>1970-01-01T01:00:00</time>
      </trkpt>
      <trkpt lat="48.655303000" lon="8.221788000">
        <ele>744.7</ele>
        <time>1970-01-01T01:00:00</time>
      </trkpt>
      <trkpt lat="48.655522000" lon="8.220970000">
        <ele>732.2</ele>
        <time>1970-01-01T01:00:00</time>
      </trkpt>
      <trkpt lat="48.657312000" lon="8.219551000">
        <ele>711.6</ele>
        <time>1970-01-01T01:00:00</time>
      </trkpt>
      <trkpt lat="48.659628000" lon="8.219515000">
        <ele>693.4</ele>
        <time>1970-01-01T01:00:00</time>
      </trkpt>
      <trkpt lat="48.659175000" lon="8.219081000">
        <ele>686.2</ele>
        <time>1970-01-01T01:00:00</time>
      </trkpt>
      <trkpt lat="48.657310000" lon="8.219245000">
        <ele>699.3</ele>
        <time>1970-01-01T01:00:00</time>
      </trkpt>
      <trkpt lat="48.654664000" lon="8.220474000">
        <ele>703.8</ele>
        <time>1970-01-01T01:00:00</time>
      </trkpt>
      <trkpt lat="48.653985000" lon="8.219840000">
        <ele>706.9</ele>
        <time>1970-01-01T01:00:00</time>
      </trkpt>
      <trkpt lat="48.653641000" lon="8.218895000">
        <ele>719.2</ele>
        <time>1970-01-01T01:00:00</time>
      </trkpt>
      <trkpt lat="48.654030000" lon="8.219873000">
        <ele>706.4</ele>
        <time>1970-01-01T01:00:00</time>
      </trkpt>
      <trkpt lat="48.654201000" lon="8.218546000">
        <ele>705.9</ele>
        <time>1970-01-01T01:00:00</time>
      </trkpt>
      <trkpt lat="48.655687000" lon="8.215400000">
        <ele>704.9</ele>
        <time>1970-01-01T01:00:00</time>
      </trkpt>
      <trkpt lat="48.655428000" lon="8.210516000">
        <ele>728.0</ele>
        <time>1970-01-01T01:00:00</time>
      </trkpt>
      <trkpt lat="48.656496000" lon="8.208802000">
        <ele>726.2</ele>
        <time>1970-01-01T01:00:00</time>
      </trkpt>
      <trkpt lat="48.656059000" lon="8.207349000">
        <ele>720.7</ele>
        <time>1970-01-01T01:00:00</time>
      </trkpt>
      <trkpt lat="48.654865000" lon="8.207062000">
        <ele>713.4</ele>
        <time>1970-01-01T01:00:00</time>
      </trkpt>
      <trkpt lat="48.653779000" lon="8.206129000">
        <ele>698.5</ele>
        <time>1970-01-01T01:00:00</time>
      </trkpt>
      <trkpt lat="48.653209000" lon="8.205084000">
        <ele>682.4</ele>
        <time>1970-01-01T01:00:00</time>
      </trkpt>
      <trkpt lat="48.651835000" lon="8.204766000">
        <ele>673.1</ele>
        <time>1970-01-01T01:00:00</time>
      </trkpt>
      <trkpt lat="48.654774000" lon="8.203702000">
        <ele>648.0</ele>
        <time>1970-01-01T01:00:00</time>
      </trkpt>
      <trkpt lat="48.655128000" lon="8.202847000">
        <ele>632.4</ele>
        <time>1970-01-01T01:00:00</time>
      </trkpt>
      <trkpt lat="48.656097000" lon="8.203036000">
        <ele>632.1</ele>
        <time>1970-01-01T01:00:00</time>
      </trkpt>
      <trkpt lat="48.656754000" lon="8.203806000">
        <ele>624.3</ele>
        <time>1970-01-01T01:00:00</time>
      </trkpt>
      <trkpt lat="48.656613000" lon="8.202926000">
        <ele>613.6</ele>
        <time>1970-01-01T01:00:00</time>
      </trkpt>
      <trkpt lat="48.655029000" lon="8.201491000">
        <ele>598.7</ele>
        <time>1970-01-01T01:00:00</time>
      </trkpt>
      <trkpt lat="48.653750000" lon="8.201953000">
        <ele>591.7</ele>
        <time>1970-01-01T01:00:00</time>
      </trkpt>
      <trkpt lat="48.655288000" lon="8.200027000">
        <ele>557.9</ele>
        <time>1970-01-01T01:00:00</time>
      </trkpt>
      <trkpt lat="48.657721000" lon="8.200566000">
        <ele>527.7</ele>
        <time>1970-01-01T01:00:00</time>
      </trkpt>
      <trkpt lat="48.657984000" lon="8.202836000">
        <ele>551.7</ele>
        <time>1970-01-01T01:00:00</time>
      </trkpt>
      <trkpt lat="48.657788000" lon="8.200497000">
        <ele>524.3</ele>
        <time>1970-01-01T01:00:00</time>
      </trkpt>
      <trkpt lat="48.659018000" lon="8.202752000">
        <ele>520.6</ele>
        <time>1970-01-01T01:00:00</time>
      </trkpt>
      <trkpt lat="48.660268000" lon="8.201273000">
        <ele>489.6</ele>
        <time>1970-01-01T01:00:00</time>
      </trkpt>
      <trkpt lat="48.662399000" lon="8.200492000">
        <ele>471.8</ele>
        <time>1970-01-01T01:00:00</time>
      </trkpt>
      <trkpt lat="48.663759000" lon="8.198807000">
        <ele>450.8</ele>
        <time>1970-01-01T01:00:00</time>
      </trkpt>
      <trkpt lat="48.665362000" lon="8.198921000">
        <ele>430.6</ele>
        <time>1970-01-01T01:00:00</time>
      </trkpt>
      <trkpt lat="48.666499000" lon="8.200703000">
        <ele>426.6</ele>
        <time>1970-01-01T01:00:00</time>
      </trkpt>
      <trkpt lat="48.667808000" lon="8.201293000">
        <ele>405.6</ele>
        <time>1970-01-01T01:00:00</time>
      </trkpt>
      <trkpt lat="48.667915000" lon="8.203804000">
        <ele>397.2</ele>
        <time>1970-01-01T01:00:00</time>
      </trkpt>
      <trkpt lat="48.667652000" lon="8.204793000">
        <ele>401.2</ele>
        <time>1970-01-01T01:00:00</time>
      </trkpt>
      <trkpt lat="48.668166000" lon="8.204378000">
        <ele>385.6</ele>
        <time>1970-01-01T01:00:00</time>
      </trkpt>
      <trkpt lat="48.668962000" lon="8.202396000">
        <ele>376.9</ele>
        <time>1970-01-01T01:00:00</time>
      </trkpt>
      <trkpt lat="48.669226000" lon="8.201441000">
        <ele>375.1</ele>
        <time>1970-01-01T01:00:00</time>
      </trkpt>
      <trkpt lat="48.669932000" lon="8.199460000">
        <ele>357.1</ele>
        <time>1970-01-01T01:00:00</time>
      </trkpt>
      <trkpt lat="48.671494000" lon="8.197703000">
        <ele>347.6</ele>
        <time>1970-01-01T01:00:00</time>
      </trkpt>
    </trkseg>
  </trk>
</gpx>
